Montgomery, AL

10:49 AM CDT on July 21, 2017 (GMT -0500)
Montgomery Regional

Weather History for KMGM - May, 2014

Change the Weather History Date:

Sunday, May 18, 2014

  Actual Average Record
Temperature  
Mean Temperature 72 °F 73 °F  
Max Temperature 85 °F 85 °F 97 °F (1962)
Min Temperature 59 °F 61 °F 42 °F (2011)
Cooling Degree Days 7 8  
Month to date cooling degree days 104 109  
Year to date cooling degree days 203 210  
Growing Degree Days 22 (Base 50)    
Moisture  
Dew Point 57 °F    
Average Humidity 61    
Maximum Humidity 87    
Minimum Humidity 34    
Precipitation  
Precipitation 0.00 in 0.11 in 2.32 in (1986)
Month to date precipitation 4.72 2.09  
Year to date precipitation 28.06 21.99  
Sea Level Pressure  
Sea Level Pressure 30.16 in    
Wind  
Wind Speed 5 mph (WNW)    
Max Wind Speed 13 mph    
Max Gust Speed 18 mph    
Visibility 10 miles    
Events      
T = Trace of Precipitation, MM = Missing Value Source: NWS Daily Summary

Daily Weather History Graph

Daily Weather History Graph

Search for Another Location

Airport or City:

Trip Planner

Search our weather history database for the weather conditions in past years. The results will help you decide how hot, cold, wet, or windy it might be!

Date:

Astronomy

May. 18, 2014 Rise Set
Actual Time 5:45 AM CDT 7:38 PM CDT
Civil Twilight 5:18 AM CDT 8:05 PM CDT
Nautical Twilight 4:45 AM CDT 8:38 PM CDT
Astronomical Twilight 4:10 AM CDT 9:13 PM CDT
Moon 11:30 PM CDT (5/18) 9:31 AM CDT (5/18)
Length of Visible Light 14h 47m
Length of Day
13h 52m
Waning Gibbous, 81% of the Moon is Illuminated
May 18
Waning Gibbous
May 21
Last Quarter
May 28
New
Jun 5
First Quarter
Jun 12
Full

Hourly Weather History & Observations

Time (CDT) Temp. Heat Index Dew Point Humidity Pressure Visibility Wind Dir Wind Speed Gust Speed Precip Events Conditions
12:53 AM 64.9 °F - 55.9 °F 73% 30.13 in 10.0 mi SSW 4.6 mph - N/A   Clear
1:53 AM 63.0 °F - 55.9 °F 78% 30.13 in 10.0 mi SSW 5.8 mph - N/A   Clear
2:53 AM 63.0 °F - 55.0 °F 75% 30.14 in 10.0 mi Calm Calm - N/A   Clear
3:53 AM 59.0 °F - 55.0 °F 87% 30.14 in 10.0 mi Variable 5.8 mph - N/A   Clear
4:53 AM 60.1 °F - 55.0 °F 83% 30.15 in 10.0 mi Calm Calm - N/A   Clear
5:53 AM 61.0 °F - 55.9 °F 83% 30.15 in 10.0 mi Calm Calm - N/A   Clear
6:53 AM 62.1 °F - 57.0 °F 84% 30.18 in 10.0 mi Calm Calm - N/A   Clear
7:53 AM 66.0 °F - 59.0 °F 78% 30.19 in 10.0 mi Variable 4.6 mph - N/A   Clear
8:53 AM 71.1 °F - 59.0 °F 66% 30.19 in 10.0 mi West 5.8 mph - N/A   Clear
9:53 AM 75.0 °F - 60.1 °F 60% 30.20 in 10.0 mi NW 8.1 mph - N/A   Clear
10:53 AM 78.1 °F - 61.0 °F 56% 30.19 in 10.0 mi NNW 6.9 mph - N/A   Clear
11:53 AM 78.1 °F - 59.0 °F 52% 30.19 in 10.0 mi Variable 3.5 mph - N/A   Scattered Clouds
12:53 PM 81.0 °F 81.6 °F 60.1 °F 49% 30.17 in 10.0 mi SW 5.8 mph - N/A   Scattered Clouds
1:53 PM 82.0 °F 81.7 °F 57.0 °F 42% 30.15 in 10.0 mi West 4.6 mph - N/A   Partly Cloudy
2:53 PM 82.9 °F 82.0 °F 55.0 °F 38% 30.14 in 10.0 mi West 5.8 mph - N/A   Partly Cloudy
3:53 PM 84.0 °F 82.5 °F 53.1 °F 34% 30.13 in 10.0 mi WSW 8.1 mph - N/A   Clear
4:53 PM 82.9 °F 82.0 °F 55.0 °F 38% 30.13 in 10.0 mi WNW 8.1 mph - N/A   Clear
5:53 PM 82.9 °F 81.9 °F 54.0 °F 37% 30.12 in 10.0 mi NW 4.6 mph - N/A   Partly Cloudy
6:53 PM 79.0 °F - 55.9 °F 45% 30.13 in 10.0 mi WNW 3.5 mph - N/A   Clear
7:53 PM 75.0 °F - 60.1 °F 60% 30.14 in 10.0 mi NNE 4.6 mph - N/A   Clear
8:53 PM 73.0 °F - 61.0 °F 66% 30.14 in 10.0 mi NE 4.6 mph - N/A   Clear
9:53 PM 72.0 °F - 61.0 °F 68% 30.16 in 10.0 mi NE 6.9 mph - N/A   Clear
10:53 PM 70.0 °F - 61.0 °F 73% 30.17 in 10.0 mi NE 5.8 mph - N/A   Clear
11:53 PM 68.0 °F - 59.0 °F 73% 30.17 in 10.0 mi ENE 11.5 mph - N/A   Clear